Terug naar catalogus

STARLINK-35089

ActiefCommunicatieVLEO
NORAD 65484·PAYLOAD·🇺🇸 United States

Gelanceerd Sep 3, 2025 vanaf Cape Canaveral Space Force Station

Loading…

Volgende Passages (komende 24 uur)

TLE

VersSource: CelesTrak SupGP

Epoch: Sep 14, 2026, 14:04 UTC

1 65484C 25195AC  26257.58659722  .00011812  00000+0  34894-3 0  2575
2 65484  53.1582  96.9983 0001122  95.6029  43.8270 15.34389957    13

Volg STARLINK-35089 in realtime met AllMySat

Download on the App Store